Flag for Turkey Weather past 2 weeks in Ankara, Turkey

Now
86 °F

Passing clouds.


Feels Like: 85 °F
Forecast: 64 / 92 °F
Wind: 7 mph from North

Location: Ankara / Esenboga

Current Time: Aug 4, 2015 at 1:26:37 PM

Latest Report: Aug 4, 2015 at 12:50 PM


Visibility: N/A

Pressure: 29.98 "Hg (27.18 "Hg at 871m altitude)

Humidity: 35%

Dew point: 55 °F

Location of AnkaraLocation

Historic Weather in Ankara — Graph

°F

Ankara temperature yesterday

Maximum temperature yesterday: 88 °F (at 2:20 PM)
Minimum temperature yesterday: 63 °F (at 5:20 AM)
Average temperature yesterday: 72 °F

Past Weeks' High & Low Weather Summary

 TemperatureHumidityPressure
High95 °F (Jul 24, 3:50 PM)94% (Aug 4, 3:50 AM)30.12 "Hg (Aug 4, 3:50 AM)
Low54 °F (Jul 21, 5:50 AM)7% (Jul 20, 6:20 PM)29.74 "Hg (Jul 31, 3:50 PM)
Average77 °F42%29.94 "Hg
* Reported Jul 20 12:20 PM — Aug 4 12:20 PM, Ankara, Weather by CustomWeather, © 2015

Note: Actual official high and low records may vary slightly from our data, if they occured in-between our weather recording intervals... More about our weather records

Advertising

Ankara weather history for previous 24 hours

 ConditionsComfort  
Time TempWeatherWind HumidityBarometerVisibility
12:20 PM
Tue, Aug 4
84 °FPassing clouds.5 mph40%29.98 "HgN/A
11:50 AM82 °FPassing clouds.7 mph42%29.98 "HgN/A
11:20 AM81 °FPassing clouds.5 mph45%30.01 "HgN/A
10:50 AM79 °FPassing clouds.5 mph45%30.01 "HgN/A
10:20 AM77 °FPassing clouds.3 mph51%30.01 "HgN/A
9:50 AM75 °FSunny.3 mph61%30.01 "Hg10 mi
9:20 AM73 °FSunny.3 mph61%30.01 "Hg10 mi
8:50 AM72 °FSunny.2 mph65%30.01 "Hg10 mi
8:20 AM68 °FSunny.2 mph73%30.04 "Hg10 mi
7:50 AM66 °FSunny.2 mph78%30.04 "Hg10 mi
7:20 AM63 °FSunny.2 mph88%30.04 "Hg10 mi
6:50 AM63 °FSunny.2 mph83%30.04 "Hg10 mi
6:20 AM61 °FClear.2 mph88%30.01 "Hg10 mi
5:50 AM61 °FClear.1 mph83%30.01 "Hg10 mi
5:20 AM61 °FClear.1 mph88%30.01 "Hg10 mi
4:50 AM61 °FClear.2 mph88%30.01 "Hg10 mi
4:20 AM61 °FClear.2 mph94%30.01 "Hg10 mi
3:50 AM61 °FClear.2 mph94%30.01 "Hg10 mi
3:20 AM64 °FClear.2 mph83%30.04 "Hg10 mi
2:50 AM63 °FClear.3 mph88%30.04 "Hg10 mi
2:20 AM64 °FClear.1 mph88%30.04 "Hg10 mi
1:50 AM64 °FClear.3 mph88%30.04 "Hg10 mi
1:20 AM63 °FClear.2 mph88%30.04 "Hg10 mi
12:50 AM66 °FPassing clouds.3 mph83%30.04 "HgN/A
12:20 AM64 °FClear.5 mph88%30.04 "Hg10 mi
11:50 PM
Mon, Aug 3
64 °FClear.2 mph88%30.04 "Hg10 mi
11:20 PM66 °FClear.1 mph83%30.04 "Hg10 mi
10:50 PM66 °FClear.5 mph83%30.04 "Hg10 mi
10:20 PM68 °FClear.1 mph78%30.04 "Hg10 mi
9:50 PM68 °FPassing clouds.5 mph83%30.04 "HgN/A
9:20 PM68 °FPassing clouds.5 mph83%30.04 "HgN/A
8:50 PM68 °FScattered clouds.2 mph83%30.04 "HgN/A
8:20 PM72 °FScattered clouds.2 mph73%30.04 "HgN/A
7:50 PM72 °FScattered clouds.6 mph69%30.04 "HgN/A
7:20 PM70 °FScattered clouds.7 mph83%30.04 "HgN/A
6:50 PM70 °FScattered clouds.5 mph78%30.04 "HgN/A
6:20 PM72 °FThunderstorms. Scattered clouds.7 mph73%30.04 "HgN/A
5:50 PM70 °FThunderstorms. Scattered clouds.3 mph78%30.07 "HgN/A
5:20 PM73 °FThunderstorms. Scattered clouds.18 mph61%30.07 "HgN/A
4:50 PM79 °FThunderstorms. Scattered clouds.21 mph45%30.04 "HgN/A
4:20 PM77 °FThunderstorms. Scattered clouds.28 mph51%30.04 "HgN/A
3:50 PM86 °FScattered clouds.8 mph33%30.01 "HgN/A
3:20 PM88 °FScattered clouds.6 mph29%30.04 "HgN/A
2:50 PM81 °FSprinkles. Scattered clouds.13 mph48%30.04 "HgN/A
2:20 PM88 °FScattered clouds.5 mph29%30.04 "HgN/A
1:50 PM86 °FScattered clouds.6 mph31%30.04 "HgN/A
1:20 PM86 °FScattered clouds.3 mph35%30.04 "HgN/A
Weather by CustomWeather, © 2015

See weather overviewHow to use our weather pages